Location: Binningen
(47.7924°N, 8.7261°E)
Time: 10:58:53
(UTC+00:00)

Cosmos 1733 Rocket - Pass Details

Date: 04 October 2021
Orbit: 604 x 627 km, 82.5° (Epoch: 22 October)

Event Time Altitude Azimuth Distance (km) Brightness Sun altitude
Rises 03:56:56 0° 344° (NNW) 2,901 6.5 -16.1°
Reaches altitude 10° 03:59:14 10° 338° (NNW) 1,994 5.6 -15.7°
Maximum altitude 04:03:25 44° 267° (W) 866 3.3 -15.1°
Drops below altitude 10° 04:07:36 10° 196° (SSW) 1,991 5.4 -14.4°
Sets 04:09:54 0° 190° (S) 2,895 6.3 -14.0°
